Location: Newark
(0.5300°S, 127.4800°E)
Time: 16:00:58
(UTC+00:00)

Vanguard 3 - All Passes

Search period start: 18 September 2019 00:00
Search period end: 28 September 2019 00:00
Orbit: 508 x 3263 km, 33.4° (Epoch: 14 September)

Date Brightness Start Highest point End Pass type
(mag) Time Alt. Az. Time Alt. Az. Time Alt. Az.
18 Sep - 00:54:19 10° WNW 01:06:25 21° NNW 01:19:51 10° NNE daylight
18 Sep - 03:19:00 10° NNW 03:29:47 17° N 03:39:21 10° NE daylight
18 Sep - 05:37:40 10° NNW 05:50:42 26° NNE 05:59:44 10° ENE daylight
18 Sep - 07:53:52 10° NW 08:06:58 64° NNE 08:14:08 10° ESE daylight
18 Sep - 10:12:10 10° W 10:19:10 27° SW 10:23:48 10° SSE visible
18 Sep - 19:08:50 10° SSW 19:15:47 45° SE 19:27:48 10° ENE visible
18 Sep - 21:19:46 10° WSW 21:29:36 59° NNW 21:46:23 10° NE daylight
18 Sep - 23:35:53 10° WNW 23:47:40 27° NNW 00:02:48 10° NNE daylight
19 Sep - 01:59:02 10° NW 02:10:01 17° N 02:20:53 10° NNE daylight
19 Sep - 04:20:12 10° NNW 04:32:51 21° NNE 04:42:49 10° ENE daylight
19 Sep - 06:36:48 10° NW 06:51:19 43° NNE 06:59:59 10° E daylight
19 Sep - 08:54:00 10° WNW 09:05:23 61° SW 09:11:40 10° SE daylight
19 Sep - 17:57:09 10° S 18:01:47 20° SE 18:08:20 10° E visible
19 Sep - 20:05:56 10° SW 20:13:59 88° NNW 20:28:50 10° NE visible
19 Sep - 22:19:20 10° W 22:29:55 36° NNW 22:45:45 10° NE daylight
20 Sep - 00:39:16 10° NW 00:50:19 19° N 01:02:45 10° NNE daylight
20 Sep - 03:02:06 10° NNW 03:13:52 18° N 03:24:23 10° NE daylight
20 Sep - 05:19:43 10° NNW 05:34:35 32° NNE 05:44:43 10° E daylight
20 Sep - 07:36:21 10° NW 07:50:46 78° NE 07:58:35 10° ESE daylight
20 Sep - 09:55:54 10° W 10:03:00 23° SW 10:07:48 10° S visible
20 Sep - 18:53:00 10° SW 18:59:25 52° SE 19:10:52 10° ENE visible
20 Sep - 21:04:15 10° WSW 21:13:16 49° NNW 21:28:37 10° NE daylight
20 Sep - 23:20:51 10° WNW 23:31:28 23° NNW 23:45:07 10° NNE daylight
21 Sep - 01:43:18 10° NW 01:54:05 17° N 02:04:58 10° NE daylight
21 Sep - 04:02:31 10° NNW 04:16:45 24° NNE 04:27:56 10° ENE daylight
21 Sep - 06:18:58 10° NW 06:35:05 52° NNE 06:44:35 10° ESE daylight
21 Sep - 08:36:59 10° WNW 08:49:04 52° SW 08:55:52 10° SE daylight
21 Sep - 17:41:05 10° S 17:45:36 23° SE 17:52:11 10° E visible
21 Sep - 19:50:18 10° WSW 19:57:41 75° NW 20:11:22 10° NE visible
21 Sep - 22:04:10 10° WNW 22:13:43 30° NNW 22:27:50 10° NNE daylight
22 Sep - 00:24:18 10° NW 00:34:21 17° N 00:45:43 10° NNE daylight
22 Sep - 02:45:07 10° NNW 02:57:50 20° NNE 03:09:21 10° NE daylight
22 Sep - 05:01:50 10° NW 05:18:19 38° NNE 05:29:28 10° E daylight
22 Sep - 07:18:51 10° NW 07:34:24 89° SW 07:42:54 10° SE daylight
22 Sep - 09:39:42 10° W 09:46:47 21° SW 09:51:44 10° S visible
22 Sep - 18:37:13 10° SW 18:43:10 62° SE 18:53:54 10° ENE visible
22 Sep - 20:48:55 10° W 20:57:06 40° NNW 21:10:47 10° NE visible
22 Sep - 23:06:04 10° NW 23:15:26 20° NNW 23:27:21 10° NNE daylight
23 Sep - 01:27:24 10° NNW 01:38:10 17° N 01:49:12 10° NE daylight
23 Sep - 03:44:53 10° NNW 04:00:29 28° NNE 04:12:50 10° ENE daylight
23 Sep - 06:01:12 10° NW 06:18:40 62° NNE 06:29:01 10° ESE daylight
23 Sep - 08:20:00 10° WNW 08:32:39 45° SW 08:39:59 10° SSE daylight
23 Sep - 17:25:05 10° SSW 17:29:27 26° SE 17:35:59 10° E visible
23 Sep - 19:34:47 10° WSW 19:41:33 61° NNW 19:53:52 10° NE visible
23 Sep - 21:49:14 10° WNW 21:57:41 24° NNW 22:09:50 10° NNE daylight
24 Sep - 00:09:23 10° NW 00:18:28 16° N 00:28:47 10° NNE daylight
24 Sep - 02:28:04 10° NNW 02:41:42 22° NNE 02:54:13 10° ENE daylight
24 Sep - 04:44:02 10° NW 05:01:50 44° NNE 05:14:01 10° E daylight
24 Sep - 07:01:23 10° WNW 07:17:52 78° SW 07:27:06 10° SE daylight
24 Sep - 09:23:33 10° W 09:30:34 19° SW 09:35:37 10° S daylight
24 Sep - 18:21:31 10° SW 18:27:02 76° SE 18:36:57 10° ENE visible
24 Sep - 20:33:45 10° W 20:41:06 32° NNW 20:52:55 10° NE visible
24 Sep - 22:51:32 10° NW 22:59:32 17° N 23:09:31 10° NNE daylight
25 Sep - 01:11:19 10° NNW 01:22:12 17° N 01:33:35 10° NE daylight
25 Sep - 03:27:19 10° NNW 03:44:03 32° NNE 03:57:30 10° E daylight
25 Sep - 05:43:31 10° NW 06:02:03 72° NE 06:13:17 10° ESE daylight
25 Sep - 08:03:04 10° WNW 08:16:10 40° SW 08:24:01 10° SSE daylight
25 Sep - 17:09:08 10° SSW 17:13:22 31° SE 17:19:46 10° ENE visible
25 Sep - 19:19:24 10° WSW 19:25:33 47° NNW 19:36:22 10° NE visible
25 Sep - 21:34:35 10° WNW 21:41:48 20° NNW 21:51:44 10° NNE daylight
25 Sep - 23:54:24 10° NNW 00:02:38 15° N 00:12:00 10° NNE daylight
26 Sep - 02:11:01 10° NNW 02:25:24 24° NNE 02:38:57 10° ENE daylight
26 Sep - 04:26:21 10° NW 04:45:11 51° NNE 04:58:22 10° ESE daylight
26 Sep - 06:43:59 10° WNW 07:01:12 69° SW 07:11:11 10° SE daylight
26 Sep - 09:07:29 10° WSW 09:14:20 17° SW 09:19:26 10° S daylight
26 Sep - 18:05:56 10° WSW 18:11:01 85° NW 18:20:00 10° NE visible
26 Sep - 20:18:50 10° WNW 20:25:15 25° NNW 20:34:59 10° NNE visible
26 Sep - 22:37:16 10° NNW 22:43:46 14° N 22:51:36 10° NNE daylight
27 Sep - 00:55:03 10° NNW 01:06:09 18° NNE 01:18:01 10° NE daylight
27 Sep - 03:09:50 10° NNW 03:27:25 37° NNE 03:41:57 10° E daylight
27 Sep - 05:25:54 10° NW 05:45:15 81° NE 05:57:24 10° ESE daylight
27 Sep - 07:46:12 10° W 07:59:36 36° SW 08:07:59 10° SSE daylight
27 Sep - 16:53:16 10° SSW 16:57:20 39° SE 17:03:31 10° ENE visible
27 Sep - 19:04:11 10° W 19:09:43 36° NNW 19:18:52 10° NE visible
27 Sep - 21:20:20 10° NW 21:26:03 16° N 21:33:26 10° NNE daylight
